Regional Weather Roundup
Issued by NWS

Home | Current Version | Previous Version | Text Only | Print | Product List | Glossary On
Versions: 1 2 3 4 5 6 7 8 9 10 11 12 13 14 15 16 17 18 19 20 21 22 23 24 25 26 27 28 29 30 31 32 33 34 35 36 37 38 39 40 41 42 43 44 45 46 47 48 49 50
000
ASUS43 KLMK 250210
RWRKY
KENTUCKY REGIONAL WEATHER ROUNDUP
NATIONAL WEATHER SERVICE LOUISVILLE KY
900 PM EST FRI FEB 24 2017

NOTE "FAIR" INDICATES FEW OR NO CLOUDS BELOW 12,000 FEET
WITH NO SIGNIFICANT WEATHER AND/OR OBSTRUCTIONS TO VISIBILITY.

KYZ001>023-026-027-061>063-070>075-250300-
WESTERN AND SOUTH CENTRAL KENTUCKY

CITY           SKY/WX    TMP DP  RH WIND       PRES   REMARKS
PADUCAH        MOCLDY    58  37  45 W14G24    29.69R
HENDERSON      CLOUDY    50  48  93 NW6       29.67R
OWENSBORO      CLOUDY    57  52  82 NW20G30   29.66R
HOPKINSVILLE   MOCLDY    65  53  63 W21G26    29.66S
BOWLING GREEN  LGT RAIN  66  53  63 W15       29.66R
GLASGOW        CLOUDY    63  54  73 W9G16     29.66R
$$

KYZ024-025-028>034-038-045-046-053-250300-
NORTH CENTRAL KENTUCKY

CITY           SKY/WX    TMP DP  RH WIND       PRES   REMARKS
LOUISVILLE/SDF CLOUDY    65  55  70 W10       29.58R
LOUISVILLE/LOU MOCLDY    65  55  70 SW8       29.59R
FORT KNOX      CLOUDY    63  55  74 SW14      29.60R
$$

KYZ035>037-039>044-047>052-055>060-089>105-250300-
NORTHEAST KENTUCKY

CITY           SKY/WX    TMP DP  RH WIND       PRES   REMARKS
LEXINGTON      CLOUDY    69  51  52 S12       29.58F
COVINGTON      LGT RAIN  61  57  87 SW9       29.57R
FRANKFORT      LGT RAIN  67  53  61 W13G35    29.57R
$$

KYZ054-064>069-076>088-106>120-250300-
SOUTHEAST KENTUCKY

CITY           SKY/WX    TMP DP  RH WIND       PRES   REMARKS
JACKSON        CLEAR     70  49  47 SW8       29.65F
LONDON         CLEAR     70  48  45 S12       29.66F
SOMERSET       CLOUDY    68  52  56 S8        29.66S
MIDDLESBORO    PTCLDY    70  52  52 S7        29.71F
MONTICELLO     PTCLDY    69  54  58 VRB6      29.67S
$$





USA.gov is the U.S. government's official web portal to all federal, state and local government web resources and services.